SL-14 DEB, 45276

Orbit data source: Space-Track

SL-14 DEB, 45276 is space debris in LEO originally from a launch on Thu, 15 Aug 1991 UTC launched from the Plesetsk Missile And Space Complex (PKMTR). Debris objects in space refer to the collection of defunct objects orbiting the Earth. Examples of debris include non-operational satellites, rocket bodies, and fragments generated from explosions, collisions, or faulty payload assembly.

Loading next visibility...
Identifier
45276, 1991-056N
Orbit
LEO
Country
Flag of CISCIS
Related business
Manufacturer
Unknown
Mission
Spacecraft
Bus & Motor
Unknown
Mass
Unknown
Launch date (UTC)
1991-08-15 (34 years ago)
Launch vehicle
Unknown
Launch site
Plesetsk Missile And Space Complex (PKMTR)
Object type
Payload
Rocket body
Debris
Shape & HBR
Unknown shape, 0.1 m
Radar Cross Section
Small (<0.1 m²)

Expand to show TLE details & history
Last TLE update: 14 hours ago

TLE from 14 hours ago
0 SL-14 DEB
1 45276U 91056N   25286.89157686  .00000638  00000-0  13598-2 0  9993
2 45276  82.5837 293.5106 0046835 219.4893 140.2820 13.28626943274405
Epoch: 2025-10-13T21:23Z
TLE epoch observation values (Epoch: 2025-10-13T21:23:52.240Z)
Latitude
-0.00005°
Longitude
-50.14492°
Altitude
1,181.971 km
Speed
7.249 km/s
True Right ascension
19h 34m 02s
True Declination
0° 00' 00"
Sunlit
Object was in daylight at epoch
Visualization orbit readout
Latitude
Unknown
Longitude
Unknown
Altitude
Unknown
Speed
Unknown
Apparent Right ascension
Unknown
Apparent Declination
Unknown
Sunlit
N/A
Visualization observer readout
Local Sidereal Time
06:14:10
Azimuth
Unknown
Elevation
Unknown
Doppler factor
Unknown
Orbital elements
Apogee altitude
1,184.428 km
Perigee altitude
1,113.92 km
Semi-major axis
7,527.311 km
Eccentricity
0.00468
Inclination
82.5837°
RAAN
293.5106°
Arg. of periapsis
219.4893°
True anomaly
140.62341°
Mean anomaly
140.282°
Eccentric anomaly
140.45286°
Mean motion
3.32341 °/min
Orbital period
108.32 mins
BSTAR
0.0013598
Loading maneuver chart data...
Computing Atmospheric mass density...
Loading historical data...
Loading historical data...
Loading historical data...
Loading historical data...
Loading historical data...
Loading historical data...
Loading historical data...

Documentation

Showing up to 5 results
|